This demonstration page uses our WeatherBlox Daily Observations layout. Learn more.

Left ArrowRight Arrow

Hourly Observations for May 7, 2015

Temp ( °F °C ) Dew Point ( °F °C ) Humidity (%) Winds ( mph kmh ) Pressure ( in mb ) Visibility ( mi km ) Precip ( " mm )
12:53 am 00:53 Mostly Clear 63 17.2 28 -2.2 27 27 N 18 30 29.83 1010 10 16 0.00 0.00
1:53 am 01:53 Clear 61 16.1 27 -2.8 27 27 N 16 26 29.84 1011 10 16 0.00 0.00
2:53 am 02:53 Clear 60 15.6 27 -2.8 28 28 N 12 19 29.83 1010 10 16 0.00 0.00
3:53 am 03:53 Clear 59 15 27 -2.8 29 29 N 13 20 29.83 1010 10 16 0.00 0.00
4:53 am 04:53 Clear 58 14.4 26 -3.3 29 29 N 16 26 29.83 1010 10 16 0.00 0.00
5:53 am 05:53 Clear 56 13.3 27 -2.8 33 33 N 18 30 29.85 1011 10 16 0.00 0.00
6:53 am 06:53 Sunny 58 14.4 27 -2.8 31 31 N 16 26 29.85 1011 10 16 0.00 0.00
7:53 am 07:53 Sunny 60 15.6 27 -2.8 28 28 N 28 44 29.84 1011 10 16 0.00 0.00
8:53 am 08:53 Sunny 63 17.2 27 -2.8 26 26 NNE 24 39 29.84 1011 10 16 0.00 0.00
9:53 am 09:53 Sunny 66 18.9 27 -2.8 23 23 NNE 24 39 29.83 1010 10 16 0.00 0.00
10:53 am 10:53 Sunny 68 20 27 -2.8 21 21 NNE 24 39 29.81 1010 10 16 0.00 0.00
11:53 am 11:53 Sunny 70 21.1 27 -2.8 20 20 N 18 30 29.79 1009 10 16 0.00 0.00
12:53 pm 12:53 Mostly Sunny 73 22.8 26 -3.3 17 17 NNE 18 30 29.78 1008 10 16 0.00 0.00
1:53 pm 13:53 Sunny 74 23.3 26 -3.3 17 17 N 21 33 29.75 1008 10 16 0.00 0.00
2:53 pm 14:53 Sunny 75 23.9 27 -2.8 17 17 N 18 30 29.73 1007 10 16 0.00 0.00
3:53 pm 15:53 Sunny 77 25 27 -2.8 16 16 NNW 18 30 29.71 1006 10 16 0.00 0.00
4:53 pm 16:53 Sunny 79 26.1 25 -3.9 14 14 N 15 24 29.69 1005 10 16 0.00 0.00
5:53 pm 17:53 Sunny 78 25.6 25 -3.9 14 14 N 17 28 29.68 1005 10 16 0.00 0.00
6:53 pm 18:53 Sunny 77 25 25 -3.9 14 14 N 21 33 29.69 1005 10 16 0.00 0.00
7:53 pm 19:53 Sunny 74 23.3 24 -4.4 15 15 NNW 9 15 29.71 1006 10 16 0.00 0.00
8:53 pm 20:53 Clear 70 21.1 26 -3.3 19 19 NNW 6 9 29.74 1007 10 16 0.00 0.00
9:53 pm 21:53 Clear 70 21.1 27 -2.8 20 20 NNW 9 15 29.75 1008 10 16 0.00 0.00
10:53 pm 22:53 Clear 69 20.6 30 -1.1 23 23 N 8 13 29.76 1008 10 16 0.00 0.00
11:53 pm 23:53 Clear 68 20 31 -0.6 25 25 undefined N/A 29.77 1008 10 16 0.00 0.00

Powered by AerisWeather